Pecs, Hungary

8:37 AM CEST on May 24, 2018 (GMT +0200)
Pecs

Weather History for LHPP - December, 2012

Change the Weather History Date:

Monday, December 3, 2012

  Actual Average Record
Temperature  
Mean Temperature 34 °F -  
Max Temperature 38 °F 38 °F - ()
Min Temperature 28 °F 29 °F - ()
Degree Days  
Heating Degree Days 31    
Moisture  
Dew Point 27 °F    
Average Humidity 77    
Maximum Humidity 93    
Minimum Humidity 63    
Precipitation  
Precipitation 0.00 in 0.06 in - ()
Sea Level Pressure  
Sea Level Pressure 29.84 in    
Wind  
Wind Speed 13 mph ()    
Max Wind Speed 21 mph    
Max Gust Speed 37 mph    
Visibility 5.9 miles    
Events      
T = Trace of Precipitation, MM = Missing Value Source: Averaged Metar Reports

Daily Weather History Graph

Daily Weather History Graph

Search for Another Location

Airport or City:

Astronomy

Dec. 03, 2012 Rise Set
Actual Time 7:11 AM CET 4:02 PM CET
Civil Twilight 6:37 AM CET 4:36 PM CET
Nautical Twilight 5:59 AM CET 5:14 PM CET
Astronomical Twilight 5:23 AM CET 5:50 PM CET
Moon 8:39 PM CET (12/3) 10:17 AM CET (12/3)
Length of Visible Light 9h 59m
Length of Day
8h 51m
Waning Gibbous, 80% of the Moon is Illuminated
Dec 3
Waning Gibbous
Dec 6
Last Quarter
Dec 13
New
Dec 20
First Quarter
Dec 28
Full

Hourly Weather History & Observations

Time (CET) Temp. Windchill Dew Point Humidity Pressure Visibility Wind Dir Wind Speed Gust Speed Precip Events Conditions
12:45 AM 32.0 °F 21.6 °F 30.2 °F 93% 29.74 in 1.9 mi NNW 15.0 mph - N/A   Overcast
1:00 AM 32 °F - 30 °F 90% 29.77 in 2 mi NNW 15.7 mph - -   Mist
1:45 AM 32.0 °F 22.1 °F 28.4 °F 87% 29.74 in 2.5 mi NNW 13.8 mph 31.1 mph N/A   Mostly Cloudy
2:43 AM - - - N/A% - - North - - N/A   Mostly Cloudy
2:45 AM 33.8 °F 22.8 °F 28.4 °F 81% 29.74 in 2.5 mi NNW 18.4 mph 34.5 mph N/A   Mostly Cloudy
3:45 AM 33.8 °F 22.2 °F 26.6 °F 75% 29.74 in 3.7 mi NW 20.7 mph 36.8 mph N/A   Mostly Cloudy
4:45 AM 33.8 °F 24.8 °F 28.4 °F 81% 29.77 in 4.3 mi NW 12.7 mph - N/A   Overcast
5:15 AM 32.0 °F 24.2 °F 28.4 °F 87% 29.77 in 4.3 mi WNW 9.2 mph - N/A   Overcast
5:18 AM 32.0 °F 23.6 °F 28.4 °F 87% 29.83 in - WNW 10.4 mph - N/A   Unknown
5:45 AM 32.0 °F 22.5 °F 28.4 °F 87% 29.77 in 5.0 mi WNW 12.7 mph - N/A   Mostly Cloudy
6:00 AM - - - N/A% - 6.2 mi NW 13.8 mph - N/A   Mostly Cloudy
6:15 AM 32.0 °F 23.6 °F 28.4 °F 87% 29.77 in 5.0 mi WNW 10.4 mph - N/A   Mostly Cloudy
6:45 AM 32.0 °F 21.6 °F 28.4 °F 87% 29.77 in 5.0 mi NW 15.0 mph - N/A   Scattered Clouds
7:00 AM 32 °F - 28 °F 79% 29.81 in 5 mi NW 13.4 mph - -   Partly Cloudy
7:15 AM 32.0 °F 23.0 °F 28.4 °F 87% 29.80 in 3.7 mi WNW 11.5 mph - N/A   Scattered Clouds
7:45 AM 32.0 °F 23.0 °F 28.4 °F 87% 29.80 in 4.3 mi West 11.5 mph - N/A   Scattered Clouds
8:15 AM 32.0 °F 23.6 °F 28.4 °F 87% 29.80 in 6.2 mi WNW 10.4 mph - N/A   Scattered Clouds
8:45 AM 32.0 °F 23.6 °F 28.4 °F 87% 29.83 in 6.2 mi WNW 10.4 mph - N/A   Mostly Cloudy
9:00 AM - - - N/A% - 6.2 mi NW 13.8 mph - N/A   Mostly Cloudy
9:15 AM 32.0 °F 23.0 °F 28.4 °F 87% 29.83 in 6.2 mi West 11.5 mph - N/A   Mostly Cloudy
9:45 AM 33.8 °F 24.8 °F 28.4 °F 81% 29.83 in 6.2 mi WNW 12.7 mph - N/A   Scattered Clouds
10:15 AM 35.6 °F 26.2 °F 30.2 °F 81% 29.83 in 6.2 mi WNW 15.0 mph - N/A   Mostly Cloudy
10:18 AM 35.6 °F 25.9 °F 28.4 °F 75% 29.83 in - WNW 16.1 mph 34.5 mph N/A   Unknown
10:45 AM 35.6 °F 25.2 °F 30.2 °F 81% 29.83 in 6.2 mi NW 18.4 mph - N/A   Scattered Clouds
11:15 AM 35.6 °F 26.6 °F 30.2 °F 81% 29.83 in 6.2 mi WNW 13.8 mph - N/A   Scattered Clouds
11:45 AM 35.6 °F 27.5 °F 30.2 °F 81% 29.83 in 6.2 mi WNW 11.5 mph - N/A   Scattered Clouds
12:00 PM - - - N/A% - 6.2 mi NW 13.8 mph - N/A   Scattered Clouds
12:15 PM 35.6 °F 26.6 °F 28.4 °F 75% 29.83 in 6.2 mi NW 13.8 mph - N/A   Scattered Clouds
12:30 PM 37.4 °F 28.2 °F 30.2 °F 75% 29.86 in 6.2 mi NW 16.1 mph 27.6 mph N/A   Scattered Clouds
12:45 PM 37.4 °F 28.9 °F 28.4 °F 70% 29.83 in 6.2 mi NW 13.8 mph - N/A   Scattered Clouds
1:00 PM 37 °F - 29 °F 64% 29.86 in 16 mi NW 13.4 mph - -   Partly Cloudy
1:15 PM 37.4 °F 28.2 °F 30.2 °F 75% 29.83 in 6.2 mi NNW 16.1 mph 27.6 mph N/A   Scattered Clouds
1:45 PM 37.4 °F 27.2 °F 28.4 °F 70% 29.83 in 6.2 mi NW 19.6 mph - N/A   Scattered Clouds
2:15 PM 37.4 °F 27.8 °F 28.4 °F 70% 29.86 in 6.2 mi NW 17.3 mph 28.8 mph N/A   Scattered Clouds
2:45 PM 37.4 °F 28.2 °F 28.4 °F 70% 29.86 in 6.2 mi NW 16.1 mph - N/A   Scattered Clouds
3:00 PM - - - N/A% - 6.2 mi NW 16.1 mph - N/A   Scattered Clouds
3:15 PM 37.4 °F 28.2 °F 26.6 °F 65% 29.86 in 6.2 mi NW 16.1 mph 27.6 mph N/A   Scattered Clouds
3:45 PM 35.6 °F 26.2 °F 24.8 °F 65% 29.86 in 6.2 mi NW 15.0 mph 28.8 mph N/A   Partly Cloudy
4:15 PM 35.6 °F 25.9 °F 24.8 °F 65% 29.86 in 6.2 mi NNW 16.1 mph - N/A   Partly Cloudy
4:45 PM 35.6 °F 26.6 °F 24.8 °F 65% 29.89 in - NW 13.8 mph - N/A   Clear
5:15 PM 35.6 °F 27.1 °F 24.8 °F 65% 29.89 in - NW 12.7 mph - N/A   Clear
5:45 PM 35.6 °F 27.1 °F 24.8 °F 65% 29.89 in - NW 12.7 mph - N/A   Clear
6:15 PM 33.8 °F 26.4 °F 24.8 °F 70% 29.89 in - NW 9.2 mph - N/A   Clear
6:45 PM 33.8 °F 27.7 °F 24.8 °F 70% 29.92 in - West 6.9 mph - N/A   Clear
7:00 PM 33 °F - 25 °F 63% 29.95 in 16 mi West 6.7 mph - -   Partly Cloudy
7:15 PM 33.8 °F 26.4 °F 24.8 °F 70% 29.92 in - WNW 9.2 mph - N/A   Clear
7:45 PM 33.8 °F 27.0 °F 24.8 °F 70% 29.92 in - WNW 8.1 mph - N/A   Clear
8:10 PM 33.8 °F 25.3 °F 24.8 °F 70% 29.92 in - NNW 11.5 mph 29.9 mph N/A   Unknown
8:11 PM 33.8 °F 24.8 °F 24.8 °F 70% 29.95 in - NNW 12.7 mph 28.8 mph N/A   Clear
8:15 PM 33.8 °F 24.8 °F 24.8 °F 70% 29.92 in - NNW 12.7 mph 28.8 mph N/A   Clear
8:45 PM 33.8 °F 24.8 °F 24.8 °F 70% 29.92 in - North 12.7 mph - N/A   Clear
9:45 PM 33.8 °F 23.9 °F 24.8 °F 70% 29.92 in - NNW 15.0 mph - N/A   Clear
10:45 PM 30.2 °F 20.8 °F 26.6 °F 86% 29.92 in 6.2 mi SW 11.5 mph - N/A   Partly Cloudy
11:45 PM 28.4 °F 22.2 °F 24.8 °F 86% 29.92 in - SSW 5.8 mph - N/A   Clear